Location: Navalperal
(40.5940°N, 4.4115°W)
Time: 01:12:39
(UTC+00:00)

Daily predictions for brighter satellites

Satellite Brightness Start Highest point End
(mag) Time Altitude Azimuth Time Altitude Azimuth Time Altitude Azimuth
SL-08 ROCKET BODY 4.4 00:11:57 62° ESE 00:12:30 66° E 00:18:25 10° NNE
NOSS 3-4 (A) 3.8 00:06:37 10° NW 00:13:42 78° WSW 00:15:35 55° SSE
NOSS 3-4 (C) 3.8 00:06:41 10° NW 00:13:46 79° WSW 00:15:41 55° SSE
Cosmos 1975 Rocket 4.0 00:14:30 40° WNW 00:14:30 40° WNW 00:18:11 10° N
Cosmos 2058 4.5 00:18:00 27° NE 00:18:00 27° NE 00:20:21 10° NNE
Cosmos 44 3.7 00:19:22 51° NNE 00:19:22 51° NNE 00:22:42 10° NNE
Cosmos 1818 3.5 00:13:29 10° NNW 00:18:58 80° ENE 00:19:09 78° E
Cosmos 2228 3.9 00:22:49 10° NNW 00:25:54 44° NW 00:25:54 44° NW
Cosmos 1833 4.5 00:27:57 10° NNW 00:33:15 52° W 00:33:15 52° W
Cosmos 1656 4.2 00:33:45 46° ESE 00:33:45 46° ESE 00:38:55 10° NE
H-2A R/B 4.5 00:34:14 18° ENE 00:34:14 18° ENE 00:36:49 10° NNE
Cosmos 923 Rocket 4.3 00:34:22 10° N 00:39:29 56° ENE 00:39:56 54° E
Cosmos 381 Rocket 4.3 00:36:29 10° NNW 00:42:51 90° ENE 00:43:46 68° SSE
ALOS 2 4.5 00:45:05 21° WNW 00:45:05 21° WNW 00:47:33 10° NW
Cosmos 1400 Rocket 3.9 00:40:54 10° N 00:43:29 41° N 00:43:29 41° N
EO 1 Delta rocket 3.9 00:46:45 71° NW 00:46:45 71° NW 00:50:58 10° NNW
Cosmos 1937 Rocket 3.4 00:47:15 75° WNW 00:47:15 75° WNW 00:52:22 10° NNE
ISS -0.3 00:50:38 10° NNW 00:52:11 13° N 00:53:44 10° NNE
Cosmos 858 Rocket 4.3 00:54:37 87° NW 00:54:37 87° NW 00:59:47 10° NNE
Cosmos 2315 Rocket 4.2 00:53:22 10° N 00:59:44 67° E 01:01:14 51° SE
USA 215 4.5 01:04:43 25° WSW 01:04:43 25° WSW 01:08:37 10° WNW
DELTA 2 R/B (1) 4.4 01:07:24 37° ESE 01:07:24 37° ESE 01:11:04 10° E
Cosmos 1536 Rocket 4.4 01:07:41 41° NW 01:07:41 41° NW 01:11:16 10° N
Meteor 2-3 Rocket 4.3 01:10:11 44° SE 01:11:11 49° E 01:16:46 10° NNE
CZ-2C R/B 2.7 01:11:03 60° SE 01:11:56 73° ENE 01:17:28 10° N
DNEPR-1 R/B 3.8 01:08:25 10° NNW 01:12:14 65° NNE 01:12:14 65° NNE
Cosmos 1655 Rocket 3.9 01:20:19 60° SSW 01:21:38 87° W 01:28:05 10° N
Cosmos 2266 Rocket 4.5 01:21:32 43° WSW 01:22:48 49° WNW 01:29:00 10° N
Cosmos 1606 Rocket 3.9 01:19:32 10° NNW 01:23:12 58° NW 01:23:12 58° NW
Cosmos 2058 Rocket 4.0 01:20:45 10° N 01:24:57 41° ENE 01:25:27 39° E
Cosmos 1315 Rocket 4.1 01:21:39 10° NNE 01:25:03 31° ENE 01:25:07 31° ENE
IDEFIX/ARIANE 42P 3.2 01:26:26 10° NNE 01:31:21 42° E 01:32:15 39° SE
Cosmos 2360 4.1 01:36:32 61° SW 01:37:31 77° WNW 01:43:15 10° NNE
CZ-2C R/B 3.0 01:34:08 10° N 01:38:52 56° WNW 01:39:09 55° W
CZ-4C R/B 3.9 01:36:56 13° WNW 01:39:32 20° NW 01:43:30 10° NNE
Cosmos 1862 4.4 01:42:22 32° NW 01:42:22 32° NW 01:44:56 10° N
Nimbus 7 Rocket 4.4 01:40:09 10° N 01:46:11 76° WNW 01:47:44 52° SW
ADEOS II 4.3 01:44:08 10° NE 01:47:18 16° E 01:50:13 11° SE
Cosmos 494 Rocket 3.8 01:43:08 10° NNW 01:48:23 83° WSW 01:49:10 65° S
Cosmos 1726 Rocket 4.2 01:48:51 10° NNW 01:52:49 44° W 01:52:49 44° W
Cosmos 2297 Rocket 2.1 01:49:20 10° NNW 01:55:00 86° WSW 01:56:45 47° SSE
Cosmos 1892 Rocket 4.2 01:55:42 42° WNW 01:55:42 42° WNW 01:59:41 10° N
Cosmos 1244 Rocket 4.4 01:55:36 48° S 01:57:30 86° W 02:03:51 10° N
MOZ.5/SAFIR/RUBIN 5/SL-8 4.4 01:56:34 31° SE 01:58:22 50° ENE 02:02:52 10° N
Cosmos 2112 Rocket 4.4 01:53:34 10° NNW 01:58:34 46° WSW 01:58:36 46° WSW
CZ-2D R/B 3.5 01:54:20 10° NE 01:58:51 29° E 02:01:07 21° SE
SL-19 R/B 4.4 01:53:09 10° NNE 01:59:01 83° WNW 02:00:57 47° SSW
BREEZE-M DEB (TANK) 4.4 01:59:37 10° NW 02:01:40 19° NNE 02:03:23 10° ENE
Cosmos 1758 Rocket 3.9 02:05:25 49° SE 02:06:10 57° E 02:10:28 10° NNE
Spot 2 4.1 02:07:01 56° W 02:07:01 56° W 02:10:47 10° NNW
Nadezhda 2 Rocket 4.5 02:04:39 44° SSW 02:06:52 81° W 02:13:21 10° N
Cosmos 1980 Rocket 2.9 02:05:14 32° SSE 02:07:05 43° ESE 02:12:20 10° NE
H-2A R/B 3.8 02:09:34 23° WNW 02:09:34 23° WNW 02:11:37 10° NW
Tiangong -0.2 02:10:34 25° E 02:10:34 25° E 02:12:10 10° E
RESURS DK-1 2.7 02:07:03 10° NNW 02:10:15 49° WNW 02:10:15 49° WNW
Cosmos 1626 Rocket 3.4 02:12:06 68° S 02:12:39 89° E 02:17:01 10° N
Resurs 1-4 Rocket 2.9 02:08:11 10° NNE 02:13:14 43° E 02:15:34 28° SSE
SeaSat 1 2.4 02:11:34 33° SSE 02:13:50 84° ENE 02:18:45 10° NNW
Nadezhda 1 Rocket 4.4 02:08:48 10° N 02:15:00 61° E 02:19:10 21° SSE
Meteor 2-2 Rocket 4.1 02:09:37 10° NNW 02:15:17 80° W 02:17:16 42° S
Cosmos 1745 Rocket 4.3 02:12:25 30° SSE 02:15:36 63° E 02:21:52 10° NNE
Cosmos 1697 Rocket 2.7 02:14:32 45° SW 02:16:14 71° WNW 02:21:54 10° NNE
Cosmos 1356 Rocket 4.3 02:19:53 10° NNW 02:23:00 33° WNW 02:23:00 33° WNW
FENGYUN 3A 3.6 02:20:25 10° NNE 02:25:50 82° ESE 02:27:58 38° S
Cosmos 2227 Rocket 2.3 02:20:50 10° NNW 02:26:32 78° ENE 02:31:20 15° SSE
Cosmos-2242 3.1 02:25:08 10° NNW 02:29:11 50° W 02:29:26 49° WSW
MSX 3.9 02:23:33 10° N 02:29:12 64° WNW 02:31:23 37° SW
ISS -1.0 02:27:11 10° NNW 02:29:52 22° NNE 02:32:32 10° ENE
Cosmos 1709 Rocket 4.4 02:25:57 23° SSE 02:29:55 59° E 02:36:09 10° NNE
Okean 1 3.6 02:29:28 10° N 02:33:09 57° E 02:34:27 35° SE
H-2A R/B 1.9 02:29:28 10° NNE 02:33:39 86° WNW 02:34:42 51° SSW
Cosmos 1932 4.4 02:31:45 37° SSW 02:34:27 89° WNW 02:40:50 10° NNE
Okean 1-7 Rocket 3.8 02:35:08 36° SSE 02:36:49 66° E 02:41:15 10° NNE
SL-23 DEB 4.2 02:37:57 35° SE 02:37:57 35° SE 02:40:52 10° ENE
ATLAS 2AS CENTAUR R/B 4.2 02:32:09 10° NNW 02:38:21 36° NE 02:44:28 10° ESE
USA 32 4.1 02:39:36 38° SW 02:41:24 59° W 02:46:34 10° N
NPP 4.1 02:40:18 10° N 02:45:29 48° WNW 02:47:39 31° SW
ALOS 2.8 02:42:02 10° NNE 02:46:31 52° E 02:49:03 24° SSE
Cosmos 1743 4.4 02:45:31 15° SE 02:47:25 24° E 02:50:10 10° NE
Cosmos 1125 Rocket 3.9 02:46:24 33° SW 02:48:28 52° WNW 02:53:38 10° N
Cosmos 192 4.3 02:46:47 35° SSW 02:48:52 87° ESE 02:53:50 10° NNE
COSMOS 2441 4.4 02:44:09 10° N 02:49:02 69° WNW 02:51:05 34° SSW
Cosmos 2221 2.6 02:45:38 10° N 02:49:54 71° E 02:52:32 22° SSE
Cosmos 2298 Rocket 4.3 02:48:25 27° S 02:51:17 65° ESE 02:56:33 10° NNE
DELTA 2 R/B (1) 3.5 02:48:05 21° W 02:51:52 81° S 02:57:28 10° E
Cosmos 2151 2.8 02:51:45 35° S 02:53:26 86° E 02:57:37 10° N
Cosmos 2369 3.7 03:01:07 25° SSW 03:04:31 80° ESE 03:10:11 10° NNE
Meteor 2-11 Rocket 4.4 03:04:18 24° SSW 03:08:07 71° W 03:14:13 10° N
IDEFIX/ARIANE 42P 4.0 03:06:29 10° NNW 03:10:32 24° WNW 03:12:57 17° WSW
Cosmos 1812 Rocket 3.8 03:06:34 10° NNW 03:10:49 50° W 03:12:55 27° SSW
Lacrosse 5 rocket 4.4 03:10:05 10° NNW 03:12:29 15° NNE 03:14:53 10° ENE
Meteor 1-20 Rocket 4.4 03:08:15 17° S 03:12:50 80° E 03:18:39 10° NNE
Cosmos 2082 4.2 03:10:51 10° NNW 03:16:31 63° ENE 03:22:05 10° SE
USA 234 3.6 03:12:53 10° NE 03:19:16 55° SE 03:24:13 17° SSW
CZ-3 R/B 4.2 02:41:41 10° WSW 03:23:56 55° S 03:34:52 10° ESE
Cosmos 1733 4.1 03:22:24 11° SSE 03:24:58 34° E 03:27:44 10° NNE
Cosmos 921 Rocket 3.1 03:20:38 10° NNW 03:25:05 79° ENE 03:29:26 10° SSE
Cosmos 2219 3.1 03:19:23 10° NNW 03:25:06 84° WSW 03:30:44 10° SSE
Cosmos 1825 Rocket 3.7 03:22:38 23° SSW 03:25:07 57° W 03:29:24 10° N
SL-16 R/B 3.2 03:20:42 10° S 03:25:58 42° ESE 03:31:16 10° NE
ADEOS II 2.2 03:22:05 10° N 03:27:15 61° WNW 03:31:02 18° SSW
SL-16 R/B 2.9 03:22:15 10° SSE 03:28:26 70° ENE 03:34:40 10° N
Envisat 3.0 03:24:17 10° N 03:29:20 70° WNW 03:33:16 17° SSW
Cosmos 1238 Rocket 3.7 03:25:12 10° NNW 03:30:20 52° W 03:34:33 14° SSW
NOAA 11 4.4 03:26:27 10° N 03:31:48 58° WNW 03:35:56 17° SSW
Cosmos 2263 Rocket 2.2 03:26:32 10° NNW 03:32:06 61° WSW 03:37:35 10° S
METEOR-M 4.2 03:32:06 10° NNE 03:37:28 82° ESE 03:42:47 10° SSW
Cosmos 1076 Rocket 3.4 03:34:16 15° SSW 03:37:49 77° W 03:42:06 10° N
Gbstr 26 Del rocket 4.3 03:31:12 10° NW 03:38:01 86° SW 03:45:49 10° SE
Cosmos 2297 Rocket 4.1 03:37:08 10° W 03:38:05 10° W 03:38:27 10° W
CZ-2D R/B 3.0 03:34:08 10° N 03:38:49 34° WNW 03:42:23 16° SW
DMSP B5D2-2 4.0 03:34:32 10° S 03:39:47 74° WSW 03:45:02 10° NNW
OAO 2 Rocket 3.9 03:41:22 17° SW 03:44:51 41° S 03:49:35 10° ESE
Tiangong -1.9 03:42:58 12° W 03:45:59 75° N 03:49:16 10° E
H-2A R/B 3.9 03:42:38 10° NNE 03:46:28 54° E 03:50:15 10° S
Meteor 1-27 Rocket 3.8 03:42:15 10° N 03:48:12 85° W 03:54:07 10° S
Cosmos 2074 Rocket 4.1 03:43:11 10° S 03:49:21 81° E 03:55:35 10° N
Cosmos 2237 4.2 03:44:35 13° SSW 03:49:41 82° WNW 03:55:24 10° NNE
Cosmos 1980 Rocket 3.4 03:46:59 12° WSW 03:51:11 27° NW 03:55:57 10° N
SeaSat 1 4.3 03:51:12 11° WSW 03:51:43 12° WSW 03:53:26 10° W
Resurs 1-4 Rocket 3.5 03:48:31 10° NNW 03:52:43 24° WNW 03:56:37 11° WSW
Meteor 1-25 Rocket 4.4 03:48:43 11° SSW 03:53:57 59° WNW 03:59:31 10° N
Cosmos 1346 Rocket 3.4 03:53:47 15° SW 03:56:26 34° WNW 03:59:49 10° N
Cosmos 1842 Rocket 3.5 03:53:33 10° N 03:57:59 83° W 04:02:22 10° S
BlueWalker 3 1.9 03:57:29 10° NW 04:01:08 80° NE 04:04:45 10° SE
H-2A R/B 1.9 03:56:57 10° NNE 04:01:58 84° WNW 04:06:50 10° SSW
Cosmos 2181 Rocket 4.1 03:58:26 10° NNW 04:04:29 60° W 04:10:28 10° S
ISS -3.8 04:03:31 10° WNW 04:06:51 69° SW 04:10:11 10° SE
Cosmos 2227 Rocket 3.9 04:07:04 10° WNW 04:09:48 14° W 04:12:30 10° SW
USA 290 3.7 04:11:39 10° NW 04:14:06 20° WSW 04:16:32 10° SSW
BREEZE M DEB (TANK) 4.2 04:11:07 10° NW 04:14:28 63° NNE 04:24:33 10° ESE
Cosmos 2278 3.7 04:11:19 10° SSW 04:16:56 75° WNW 04:22:36 10° NNE
CENTAUR R/B 2.7 04:12:46 10° SSW 04:17:56 65° ESE 04:24:24 10° NE
Cosmos 1842 2.8 04:15:26 10° NNW 04:18:50 72° W 04:22:12 10° S
Cosmos 1269 Rocket 4.0 04:13:41 10° NNW 04:19:00 83° WSW 04:24:16 10° SSE
Cosmos 1743 4.3 04:19:24 10° WSW 04:21:27 15° WNW 04:23:31 10° NW
CZ-2C R/B 2.5 04:17:55 10° NNE 04:22:53 89° WNW 04:27:58 10° SSW
ALOS 4.1 04:20:19 10° NNW 04:23:04 16° WNW 04:25:49 10° W
ACS3 Solar Sail 3.9 04:22:10 10° NE 04:27:04 26° E 04:32:01 10° SSE
